カタログに戻る

YAOGAN-30 Y

運用中軍事VLEO
NORAD 48424·PAYLOAD·🇨🇳 China

打ち上げ May 6, 2021 から Xichang Satellite Launch Center

Loading…

次のパス (今後24時間)

TLE

最新Source: Space-Track

元期: Sep 14, 2026, 13:24 UTC

1 48424U 21039B   26257.55853273  .00002096  00000-0  15473-3 0  9997
2 48424  34.9949 206.2011 0004831 250.1858 109.8330 15.03003579292997

AllMySatでYAOGAN-30 Yをリアルタイム追跡

Download on the App Store